Flight Track Log - Related Links

Times and Time Zones

All times are in EDT time to prevent confusion due to time zone crossing. See the DAL1425 flight status page for this flight to view local times or setup timezone preferences in your user account.

Time Position Orientation Groundspeed Altitude Reporting Facility
EDT Latitude Longitude Course Direction KTS MPH feet Rate Location/Type
04:41PM 39.1167 -76.6667 211° Southwest 249 287 2,800  Level Potomac TRACON
04:42PM 39.1500 -76.7500 297° West 277 319 6,800 3,200 Climbing Potomac TRACON
04:43PM 39.2000 -77.0763 270° West  Level FlightAware Approximate
04:43PM 39.1833 -76.8333 297° West 272 313 9,200  Level Potomac TRACON
04:44PM 39.1575 -77.1868 211° Southwest  Level FlightAware Approximate
04:44PM 39.2000 -76.9167 284° West 266 306 12,500  Level Potomac TRACON
04:45PM 39.0647 -77.2589 211° Southwest  Level FlightAware Approximate
04:45PM 39.2167 -77.0167 282° West 276 318 14,300  Level Potomac TRACON
04:46PM 39.2167 -77.1167 270° West 311 358 16,100 1,650 Climbing Potomac TRACON
04:47PM 39.1500 -77.2000 224° Southwest 330 380 17,600 1,550 Climbing Potomac TRACON
04:48PM 39.0667 -77.2667 212° Southwest 348 400 19,200 1,550 Climbing Potomac TRACON
04:49PM 38.9833 -77.3500 218° Southwest 367 422 20,700 1,134 Climbing Potomac TRACON
04:51PM 38.7567 -77.4897 206° Southwest 418 481 23,000 687 Climbing Washington Center
04:52PM 38.6658 -77.5697 215° Southwest 408 470 23,000 610 Level Washington Center
04:53PM 38.5853 -77.6500 218° Southwest 408 470 24,200 1,373 Climbing Washington Center
04:54PM 38.4981 -77.7406 219° Southwest 408 470 25,700 1,289 Climbing Washington Center
04:55PM 38.4333 -77.8606 235° Southwest 408 470 26,800 1,289 Climbing Washington Center
04:56PM 38.3725 -77.9806 237° Southwest 413 475 28,300 1,388 Climbing Washington Center
04:57PM 38.3117 -78.1031 238° Southwest 413 475 29,600 857 Climbing Washington Center
04:58PM 38.2608 -78.2336 244° Southwest 413 475 30,000 202 Climbing Washington Center
04:59PM 38.2081 -78.3611 242° Southwest 413 475 30,000  Level Washington Center
05:00PM 38.1569 -78.4886 243° Southwest 408 470 30,000  Level Washington Center
05:01PM 38.1014 -78.6317 244° Southwest 408 470 30,000  Level Washington Center
05:02PM 38.0503 -78.7586 243° Southwest 408 470 30,000  Level Washington Center
05:03PM 37.9992 -78.8750 241° Southwest 408 470 30,000  Level Washington Center
05:04PM 37.9475 -79.0019 243° Southwest 408 470 30,000  Level Washington Center
05:05PM 37.8897 -79.1256 239° Southwest 403 464 30,000  Level Washington Center
05:06PM 37.8050 -79.2425 228° Southwest 408 470 30,000  Level Washington Center
05:07PM 37.7308 -79.3467 228° Southwest 408 470 30,000  Level Washington Center
05:08PM 37.6525 -79.4478 226° Southwest 408 470 30,000  Level Washington Center
05:09PM 37.5781 -79.5514 228° Southwest 408 470 30,000  Level Washington Center
05:10PM 37.5036 -79.6575 229° Southwest 408 470 30,000  Level Washington Center
05:12PM 37.3608 -79.8483 227° Southwest 423 487 30,000  Level Atlanta Center
05:13PM 37.2772 -79.9622 227° Southwest 410 472 30,000  Level Atlanta Center
05:14PM 37.2033 -80.0600 227° Southwest 404 465 30,000  Level Atlanta Center
05:15PM 37.1253 -80.1656 227° Southwest 404 465 30,000  Level Atlanta Center
05:16PM 37.0514 -80.2678 228° Southwest 404 465 30,000  Level Atlanta Center
05:17PM 36.9811 -80.3622 227° Southwest 409 471 30,000  Level Atlanta Center
05:18PM 36.9069 -80.4592 226° Southwest 404 465 30,000  Level Atlanta Center
05:19PM 36.8308 -80.5636 228° Southwest 404 465 30,000  Level Atlanta Center
05:20PM 36.7542 -80.6628 226° Southwest 404 465 30,000  Level Atlanta Center
05:21PM 36.6842 -80.7642 229° Southwest 404 465 30,000  Level Atlanta Center
05:22PM 36.6094 -80.8631 227° Southwest 404 465 30,000  Level Atlanta Center
05:23PM 36.5328 -80.9617 226° Southwest 398 458 30,000  Level Atlanta Center
05:24PM 36.4581 -81.0625 227° Southwest 398 458 30,000  Level Atlanta Center
05:25PM 36.3811 -81.1608 226° Southwest 398 458 30,000  Level Atlanta Center
05:26PM 36.3064 -81.2614 227° Southwest 398 458 30,000  Level Atlanta Center
05:27PM 36.2314 -81.3592 226° Southwest 403 464 30,000  Level Atlanta Center
05:28PM 36.1542 -81.4619 227° Southwest 408 470 30,000  Level Atlanta Center
05:29PM 36.0772 -81.5647 227° Southwest 408 470 30,000  Level Atlanta Center
05:30PM 35.9997 -81.6647 226° Southwest 408 470 30,000  Level Atlanta Center
05:31PM 35.9164 -81.7722 226° Southwest 406 467 30,000  Level Atlanta Center
05:32PM 35.8431 -81.8717 228° Southwest 406 467 30,000  Level Atlanta Center
05:33PM 35.7614 -81.9708 225° Southwest 406 467 30,000  Level Atlanta Center
05:34PM 35.6858 -82.0675 226° Southwest 406 467 30,000  Level Atlanta Center
05:35PM 35.6058 -82.1639 224° Southwest 406 467 30,000 -300 Level Atlanta Center
05:36PM 35.5239 -82.2578 223° Southwest 406 467 29,400 -750 Descending Atlanta Center
05:37PM 35.4397 -82.3539 223° Southwest 406 467 28,500 -950 Descending Atlanta Center
05:38PM 35.3553 -82.4472 222° Southwest 406 467 27,500 -1,000 Descending Atlanta Center
05:39PM 35.2711 -82.5403 222° Southwest 413 475 26,500 -1,000 Descending Atlanta Center
05:40PM 35.1906 -82.6258 221° Southwest 408 470 25,500 -1,000 Descending Atlanta Center
05:41PM 35.1186 -82.7081 223° Southwest 384 442 24,500 -1,000 Descending Atlanta Center
05:42PM 35.0442 -82.7931 223° Southwest 373 429 23,500 -1,000 Descending Atlanta Center
05:43PM 34.9719 -82.8728 222° Southwest 362 417 22,500 -750 Descending Atlanta Center
05:44PM 34.8956 -82.9472 219° Southwest 357 411 22,000 -250 Descending Atlanta Center
05:45PM 34.8231 -83.0292 223° Southwest 357 411 22,000  Level Atlanta Center
05:46PM 34.7550 -83.1058 223° Southwest 362 417 22,000 -200 Level Atlanta Center
05:47PM 34.6783 -83.1925 223° Southwest 373 429 21,600 -950 Descending Atlanta Center
05:48PM 34.6039 -83.2792 224° Southwest 382 440 20,100 -1,500 Descending Atlanta Center
05:49PM 34.5311 -83.3581 222° Southwest 366 421 18,600 -1,550 Descending Atlanta Center
05:50PM 34.4544 -83.4392 221° Southwest 366 421 17,000 -1,550 Descending Atlanta Center
05:51PM 34.3817 -83.5178 222° Southwest 366 421 15,500 -1,500 Descending Atlanta Center
05:52PM 34.3069 -83.6011 223° Southwest 366 421 14,000 -1,500 Descending Atlanta Center
05:53PM 34.2300 -83.6869 223° Southwest 366 421 12,500 -1,000 Descending Atlanta Center
05:54PM 34.1675 -83.7550 222° Southwest 340 391 12,000 -250 Descending Atlanta Center
05:55PM 34.1114 -83.8181 223° Southwest 295 339 12,000 -150 Level Atlanta Center
05:56PM 34.0550 -83.8758 220° Southwest 281 323 11,700 -700 Descending Atlanta Center
05:57PM 34.0008 -83.9361 223° Southwest 271 312 10,600 -950 Descending Atlanta Center
05:58PM 33.9342 -83.9661 200° South 271 312 9,800 -1,000 Descending Atlanta Center
05:59PM 33.8547 -83.9636 179° South 278 320 8,600 -900 Descending Atlanta Center
06:00PM 33.7817 -83.9614 179° South 290 334 8,000 -500 Descending Atlanta Center
06:01PM 33.7044 -83.9789 191° South 285 328 7,600 -650 Descending Atlanta Center
06:03PM 33.6333 -84.1333 241° Southwest 207 238 5,800 -828 Descending Atlanta TRACON
06:04PM 33.6333 -84.1833 270° West 191 220 4,800 -947 Descending Atlanta TRACON
06:05PM 33.6333 -84.2333 270° West 171 197 4,000 -947 Descending Atlanta TRACON
06:06PM 33.6333 -84.2833 270° West 163 188 3,000 -900 Descending Atlanta TRACON
06:07PM 33.6333 -84.3500 270° West 146 168 2,200 -800 Descending Atlanta TRACON
06:08PM 33.6333 -84.3833 270° West 139 160 1,400 -800 Descending Atlanta TRACON

Login

Don't have an account? Register now (free) for customized features, flight alerts, and more!